User: anonymous   Login
Location: Unspecified
(0.0000°N, 0.0000°E)
Time: 15:25:53
(UTC+01:00)
Language:

Cosmos 1703 Rocket - Orbit

View from above orbital plane
View from above orbital plane
View from above satellite
View from above satellite

Ground track
Ground track

The orbit data is extracted from the following two-line orbital elements,

1 16263U 85108B   14354.23332233  .00000393  00000-0  45681-4 0  8507
2 16263 082.5044 247.7808 0021880 104.4213 014.8557 14.82595591569530
Epoch (UTC): 20 December 2014 05:35:59
Eccentricity: 0.0021880
inclination: 82.5044°
perigee height: 606 km
apogee height: 636 km
right ascension of ascending node: 247.7808°
argument of perigee: 104.4213°
revolutions per day: 14.82595591
mean anomaly at epoch: 14.8557°
orbit number at epoch: 56953

The dashed part of the orbit path shows where the satellite is in the earth's shadow,  

DLR